Stations météo

Publicité
Gourette, France (7775): Température de l'air & dewpoint: 16.07.2018 10:00:00 - 22.07.2018 10:00:00 (CEST)Gourette, France (7775): Vitesse du vent & gusts: 16.07.2018 10:00:00 - 22.07.2018 10:00:00 (CEST)Gourette, France (7775): Direction du vent: 16.07.2018 10:00:00 - 22.07.2018 10:00:00 (CEST)Gourette, France (7775): reduced air pressure: 16.07.2018 10:00:00 - 22.07.2018 10:00:00 (CEST)Gourette, France (7775): visibility: 16.07.2018 10:00:00 - 22.07.2018 10:00:00 (CEST)Gourette, France (7775): Quantités de précipitations: 16.07.2018 10:00:00 - 22.07.2018 10:00:00 (CEST)
Date & Time tt [°C] td [°C] ff [km/h] ff [knt] fx [km/h] fx [knt] dd ppp [hPa] vv [km] rr [mm]
22.07.2018 10:00:00 28,8 22,1 5 3 19 11 ESE 1010,8 - 0,0
22.07.2018 09:00:00 27,5 20,8 9 5 19 10 NNE 1010,8 - 0,0
22.07.2018 08:00:00 24,7 18,6 9 5 22 12 N 1010,7 20 0,0
22.07.2018 07:00:00 23,0 16,3 11 6 19 11 NW 1010,4 - 0,0
22.07.2018 06:00:00 22,7 17,8 16 9 29 16 NW 1009,9 - 0,0
22.07.2018 05:00:00 22,2 17,3 26 14 32 17 SSW 1009,3 - 0,0
22.07.2018 04:00:00 22,1 19,3 19 11 23 12 SSW 1009,6 - 0,0
22.07.2018 03:00:00 23,0 19,8 13 7 16 8 SW 1010,3 - 0,0
22.07.2018 02:00:00 22,5 18,5 5 3 15 8 W 1010,9 - 0,0
22.07.2018 01:00:00 23,9 18,8 11 6 21 11 NNW 1011,3 - 0,0
22.07.2018 00:00:00 24,2 17,9 11 6 20 11 N 1011,1 - 0,0
21.07.2018 23:00:00 24,7 20,0 15 8 21 11 N 1010,6 - 0,0
21.07.2018 22:00:00 25,0 23,2 10 6 22 12 N 1010,1 - 0,0
21.07.2018 21:00:00 25,8 22,9 14 8 19 10 NNE 1009,5 - 0,0
21.07.2018 20:00:00 26,8 22,8 10 5 19 10 NE 1009,5 - 0,0
21.07.2018 19:00:00 27,1 22,9 12 7 21 11 NE 1009,1 - 0,0
21.07.2018 18:00:00 27,9 22,6 11 6 21 11 E 1009,0 - 0,0
21.07.2018 17:00:00 29,7 22,7 10 5 21 12 E 1009,4 20 0,0
21.07.2018 16:00:00 30,2 22,1 11 6 26 14 ESE 1009,6 - 0,0
21.07.2018 15:00:00 30,2 23,1 13 7 24 13 ESE 1009,7 - 0,0
21.07.2018 14:00:00 29,9 22,3 11 6 22 12 E 1009,8 - 0,0
21.07.2018 13:00:00 29,9 21,0 8 4 23 12 ESE 1010,0 - 0,0
21.07.2018 12:00:00 29,3 22,5 12 6 22 12 E 1009,8 - 0,0
21.07.2018 11:00:00 28,0 22,9 9 5 17 9 ESE 1009,8 15 0,0
21.07.2018 10:00:00 28,0 22,5 4 2 11 6 SE 1009,7 - 0,0
21.07.2018 09:00:00 27,0 22,6 3 1 10 5 ENE 1010,2 - 0,0
21.07.2018 08:00:00 24,5 21,6 8 5 13 7 W 1010,3 - 0,0
21.07.2018 07:00:00 24,2 21,3 10 6 17 9 NW 1010,3 - 0,0
21.07.2018 06:00:00 23,4 20,3 12 7 17 9 NNW 1010,7 - 0,0
21.07.2018 05:00:00 23,6 21,3 8 4 11 6 NNW 1011,1 18 0,0
21.07.2018 04:00:00 23,6 21,7 7 4 15 8 WNW 1011,5 - 0,0
21.07.2018 03:00:00 22,5 18,7 7 4 10 6 WSW 1011,8 - 0,0
21.07.2018 02:00:00 22,7 19,3 10 5 18 10 S 1011,6 - 0,0
21.07.2018 01:00:00 23,0 19,8 13 7 15 8 SSW 1011,8 - 0,0
21.07.2018 00:00:00 23,8 19,9 10 6 14 8 SW 1012,0 - 0,0
20.07.2018 23:00:00 23,5 20,6 11 6 16 8 SW 1012,4 - 0,0
20.07.2018 22:00:00 24,4 21,3 16 9 24 13 S 1012,4 - 0,0
20.07.2018 21:00:00 25,3 20,5 16 9 25 14 S 1012,1 - 0,0
20.07.2018 20:00:00 27,0 20,3 19 11 29 16 S 1012,1 25 0,0
20.07.2018 19:00:00 27,6 20,9 16 8 36 19 S 1012,5 - 0,0
20.07.2018 18:00:00 28,3 21,3 18 10 29 16 SSE 1012,9 - 0,0
20.07.2018 17:00:00 28,8 21,8 18 10 29 16 SSE 1013,5 25 0,0
20.07.2018 16:00:00 29,1 21,6 16 9 31 17 SE 1013,6 - 0,0
20.07.2018 15:00:00 29,1 21,6 19 11 34 18 SE 1014,1 - 0,0
20.07.2018 14:00:00 29,6 21,0 20 11 32 17 SSE 1014,1 20 0,0
20.07.2018 13:00:00 29,6 18,4 18 10 32 17 SSE 1014,4 - 0,0
20.07.2018 12:00:00 29,3 19,3 18 10 33 18 SSE 1014,2 - 0,0
20.07.2018 11:00:00 28,6 20,3 16 9 26 14 SE 1014,2 - 0,0
20.07.2018 10:00:00 28,7 20,2 14 8 22 12 SE 1014,1 - 0,0
20.07.2018 09:00:00 27,1 19,2 10 6 17 9 S 1014,1 - 0,0
20.07.2018 08:00:00 23,8 18,4 7 4 8 5 SW 1014,3 18 0,0
20.07.2018 07:00:00 24,4 17,1 4 2 9 5 NW 1014,2 - 0,0
20.07.2018 06:00:00 24,1 16,4 6 3 9 5 NNW 1014,2 - 0,0
20.07.2018 05:00:00 24,2 17,0 8 4 13 7 NW 1014,0 18 0,0
20.07.2018 04:00:00 24,2 16,2 8 4 14 7 NNW 1014,0 - 0,0
20.07.2018 03:00:00 24,2 16,5 12 6 18 10 NNW 1013,9 - 0,0
20.07.2018 02:00:00 23,9 16,7 15 8 18 10 NNW 1014,1 - 0,0
20.07.2018 01:00:00 24,1 19,2 4 2 5 3 N 1014,3 - 0,0
20.07.2018 00:00:00 24,3 21,0 3 2 7 4 SSW 1014,3 - 0,0
19.07.2018 23:00:00 23,4 18,7 4 2 9 5 SW 1014,2 - 0,0
19.07.2018 22:00:00 24,9 21,4 4 2 7 4 NNW 1014,2 - 0,0
19.07.2018 21:00:00 25,2 21,9 4 2 8 4 SSW 1013,7 - 0,0
19.07.2018 20:00:00 26,7 22,1 5 3 9 5 ESE 1013,4 20 0,0
19.07.2018 19:00:00 27,9 22,4 6 3 16 9 E 1013,5 - 0,0
19.07.2018 18:00:00 29,0 22,7 10 5 22 12 ENE 1013,6 - 0,0
19.07.2018 17:00:00 28,8 22,3 13 7 22 12 ENE 1013,8 20 0,0
19.07.2018 16:00:00 28,3 22,5 11 6 22 12 E 1014,1 - 0,0
19.07.2018 15:00:00 28,5 22,3 13 7 22 12 E 1014,3 - 0,0
19.07.2018 14:00:00 29,5 22,7 11 6 22 12 E 1014,0 20 0,0
19.07.2018 13:00:00 28,3 22,1 13 7 23 13 E 1014,2 - 0,0
19.07.2018 12:00:00 28,4 21,9 13 7 23 12 E 1014,0 - 0,0
19.07.2018 11:00:00 28,4 22,2 13 7 22 12 E 1013,8 18 0,0
19.07.2018 10:00:00 28,8 21,8 10 5 19 11 E 1013,4 - 0,0
19.07.2018 09:00:00 26,7 22,1 8 4 14 7 SSE 1013,5 - 0,0
19.07.2018 08:00:00 24,5 18,9 3 2 6 3 ENE 1013,7 18 0,0
19.07.2018 07:00:00 22,9 18,0 3 2 10 6 SSW 1013,5 - 0,0
19.07.2018 06:00:00 23,5 19,8 8 4 10 5 NW 1013,7 - 0,0
19.07.2018 05:00:00 23,4 18,9 5 3 12 6 N 1013,6 - 0,0
19.07.2018 04:00:00 23,3 17,3 11 6 14 8 NNW 1013,9 - 0,0
19.07.2018 03:00:00 23,9 18,5 8 4 11 6 NNW 1014,0 - 0,0
19.07.2018 02:00:00 23,9 17,4 8 4 16 9 NNW 1014,2 - 0,0
19.07.2018 01:00:00 24,2 18,2 6 3 7 4 NNW 1014,3 - 0,0
19.07.2018 00:00:00 24,3 19,1 2 1 7 4 SE 1014,3 - 0,0
18.07.2018 23:00:00 24,8 19,4 2 1 6 3 S 1014,0 - 0,0
18.07.2018 22:00:00 25,2 19,3 4 2 8 5 WSW 1013,9 - 0,0
18.07.2018 21:00:00 25,5 18,9 8 4 15 8 S 1013,7 - 0,0
18.07.2018 20:00:00 27,1 19,2 9 5 20 11 S 1013,5 25 0,0
18.07.2018 19:00:00 28,2 19,4 15 8 25 14 SSE 1013,6 - 0,0
18.07.2018 18:00:00 29,4 19,1 15 8 27 14 SSE 1013,9 - 0,0
18.07.2018 17:00:00 30,0 18,8 18 10 31 17 SSE 1014,3 - 0,0
18.07.2018 16:00:00 29,9 20,7 18 10 33 18 SSE 1014,4 - 0,0
18.07.2018 15:00:00 30,0 18,4 20 11 33 18 SSE 1014,6 - 0,0
18.07.2018 14:00:00 29,9 20,7 18 10 32 17 SE 1014,8 25 0,0
18.07.2018 13:00:00 28,9 20,9 22 12 33 18 SSE 1015,1 - 0,0
18.07.2018 12:00:00 29,0 21,0 19 10 31 17 SSE 1015,3 - 0,0
18.07.2018 11:00:00 28,3 19,0 16 9 28 15 SSE 1015,2 25 0,0
18.07.2018 10:00:00 28,5 18,9 9 5 15 8 SE 1015,0 - 0,0
18.07.2018 09:00:00 26,8 19,2 6 3 11 6 ESE 1015,1 - 0,0
18.07.2018 08:00:00 24,0 17,5 2 1 16 9 NNW 1015,0 - 0,0
18.07.2018 07:00:00 23,0 14,8 10 5 15 8 N 1014,8 - 0,0
18.07.2018 06:00:00 23,3 15,6 5 3 7 4 NNE 1014,5 - 0,0
18.07.2018 05:00:00 22,9 16,7 0 0 4 2 N 1014,3 - 0,0
18.07.2018 04:00:00 23,5 17,0 3 2 11 6 SSW 1014,1 - 0,0
18.07.2018 03:00:00 23,1 17,6 10 6 11 6 SW 1014,3 - 0,0
18.07.2018 02:00:00 23,9 17,4 3 2 12 6 SSW 1014,4 - 0,0
18.07.2018 01:00:00 23,8 16,1 8 5 13 7 NNW 1014,3 - 0,0
18.07.2018 00:00:00 23,6 17,8 2 1 13 7 NNW 1014,2 - 0,0
17.07.2018 23:00:00 22,9 17,6 12 6 14 8 SSW 1013,5 - 0,0
17.07.2018 22:00:00 23,4 17,8 10 5 16 9 SW 1013,5 - 0,0
17.07.2018 21:00:00 24,6 18,3 13 7 18 10 S 1012,9 - 0,0
17.07.2018 20:00:00 26,1 18,2 11 6 20 11 SSE 1012,6 - 0,0
17.07.2018 19:00:00 27,3 19,1 9 5 17 9 SSE 1012,7 - 0,0
17.07.2018 18:00:00 28,5 19,2 8 4 18 10 ESE 1012,9 - 0,0
17.07.2018 17:00:00 28,7 19,1 9 5 22 12 E 1013,0 - 0,0
17.07.2018 16:00:00 28,7 19,3 11 6 22 12 ESE 1013,0 - 0,0
17.07.2018 15:00:00 29,2 19,5 13 7 23 12 E 1013,0 - 0,0
17.07.2018 14:00:00 29,3 18,7 11 6 24 13 E 1013,0 25 0,0
17.07.2018 13:00:00 29,2 18,9 12 7 23 12 E 1012,8 - 0,0
17.07.2018 12:00:00 28,9 17,4 14 8 22 12 E 1012,5 - 0,0
17.07.2018 11:00:00 29,1 17,3 12 7 20 11 E 1012,1 - 0,0
17.07.2018 10:00:00 28,1 17,0 11 6 17 9 ESE 1011,7 - 0,0
17.07.2018 09:00:00 28,3 14,9 7 4 11 6 E 1011,2 - 0,0
17.07.2018 08:00:00 23,0 16,3 8 4 13 7 SSW 1010,8 - 0,0
17.07.2018 07:00:00 22,3 12,5 9 5 16 8 SW 1010,7 - 0,0
17.07.2018 06:00:00 21,9 13,8 11 6 13 7 SSW 1010,3 - 0,0
17.07.2018 05:00:00 23,2 15,0 4 2 16 8 W 1009,8 - 0,0
17.07.2018 04:00:00 22,0 16,7 9 5 19 10 S 1009,2 - 0,0
17.07.2018 03:00:00 22,2 16,0 9 5 19 10 N 1008,9 - 0,0
17.07.2018 02:00:00 21,9 18,7 16 9 22 12 WSW 1008,7 - 0,0
17.07.2018 01:00:00 23,1 20,1 8 4 29 16 W 1009,0 - 0,0
17.07.2018 00:00:00 23,6 18,0 6 4 25 13 ENE 1008,8 - 0,0
16.07.2018 23:00:00 24,8 16,5 22 12 41 22 N 1008,2 - 0,0
16.07.2018 22:00:00 25,6 15,3 25 13 46 25 WSW 1008,1 - 0,0
16.07.2018 21:00:00 25,0 15,6 19 11 32 17 WSW 1007,8 - 0,0
16.07.2018 20:00:00 25,2 17,9 16 9 26 14 WSW 1007,8 - 0,0
16.07.2018 19:00:00 27,8 19,1 11 6 20 11 SSE 1007,4 - 0,0
16.07.2018 18:00:00 27,5 19,0 11 6 26 14 S 1008,6 - 0,0
16.07.2018 17:00:00 25,7 21,6 29 15 65 35 SSW 1009,0 - 1,2
16.07.2018 16:00:00 31,7 14,8 37 20 58 31 S 1008,6 - 0,0
16.07.2018 15:00:00 31,9 20,2 7 4 16 9 ENE 1009,2 - 0,0
16.07.2018 14:00:00 29,0 23,0 6 4 22 12 E 1010,0 - 0,0
16.07.2018 13:00:00 29,6 22,8 8 4 23 13 ENE 1010,8 - 0,0
16.07.2018 12:00:00 26,7 21,9 4 2 16 9 ENE 1011,8 - 0,0
16.07.2018 11:00:00 26,1 20,2 3 2 25 13 SE 1012,6 15 0,0
16.07.2018 10:00:00 25,6 19,7 10 5 17 9 S 1013,5 - 0,0

tt = Température de l'air
td = dewpoint
ff = Vitesse du vent
fx = gusts
dd = Direction du vent
ppp = reduced air pressure
vv = visibility
rr = Quantités de précipitations

stations d'obs. à proximité